Amavisti — V2CR5 — position and weather

sailwx.info

Track history (hours):
 
Tides and Currents Weather Stations Pressure Air Temp Water Temp Dewpoint Dewpoint Depression Visibility Wind Speed Wind Dir Waves Ship Positions

Amavisti

Last reported at 2014-Aug-03 06:10 UTC. Time now 2014-Sep-18 13:43 UTC.
Position N 37°01' E 026°12'.
Warning: this ship's position is 46 days out of date.

Length 116 m; draft 7.2 m.

Type: Cargo ship. MMSI: 305086000.

Date/timePositionNaut miles runAvg speedWind from/ knotsBaromVisibWave heightAir tempDewpointWater temp
2014-Aug-03 06:10N 37°01' E 026°12'610.5
2014-Aug-03 05:33N 37°06' E 026°08'1110.8
2014-Aug-03 04:33N 37°16' E 026°02'1111.0
2014-Aug-03 03:33N 37°26' E 025°56'1211.2
2014-Aug-03 02:30N 37°37' E 025°52'1110.8
2014-Aug-03 01:30N 37°48' E 025°49'242 9.0
2014-Aug-01 22:33N 40°59' E 028°60'  
2014-Jul-26 12:33N 40°58' E 028°60'8 7.7
2014-Jul-26 11:31N 40°50' E 029°01'6 4.4
2014-Jul-26 10:14N 40°45' E 028°57'0 0.4
2014-Jul-26 09:32N 40°45' E 028°58'0 0.2
2014-Jul-26 08:33N 40°45' E 028°58'0 0.3
2014-Jul-26 07:33N 40°45' E 028°58'0 0.2
2014-Jul-26 06:33N 40°45' E 028°58'0 0.2
2014-Jul-26 04:30N 40°44' E 028°59'0 0.1
2014-Jul-26 03:32N 40°44' E 028°59'0 0.1
2014-Jul-26 02:20N 40°44' E 028°59'3 3.2
2014-Jul-26 01:32N 40°46' E 029°01'10 9.6
2014-Jul-26 00:33N 40°47' E 029°14'1010.5
2014-Jul-25 23:33N 40°45' E 029°27'10 9.5
2014-Jul-25 22:33N 40°45' E 029°40'  
Track history (hours):
 
Tides and Currents Weather Stations Pressure Air Temp Water Temp Dewpoint Dewpoint Depression Visibility Wind Speed Wind Dir Waves Ship Positions

Amavisti

Last reported at 2014-Aug-03 06:10 UTC. Time now 2014-Sep-18 13:43 UTC.
Position N 37°01' E 026°12'.
Warning: this ship's position is 46 days out of date.

Length 116 m; draft 7.2 m.

Type: Cargo ship. MMSI: 305086000.

Date/timePositionNaut miles runAvg speedWind from/ knotsBaromVisibWave heightAir tempDewpointWater temp
2014-Aug-03 06:10N 37°01' E 026°12'610.5
2014-Aug-03 05:33N 37°06' E 026°08'1110.8
2014-Aug-03 04:33N 37°16' E 026°02'1111.0
2014-Aug-03 03:33N 37°26' E 025°56'1211.2
2014-Aug-03 02:30N 37°37' E 025°52'1110.8
2014-Aug-03 01:30N 37°48' E 025°49'242 9.0
2014-Aug-01 22:33N 40°59' E 028°60'  
2014-Jul-26 12:33N 40°58' E 028°60'8 7.7
2014-Jul-26 11:31N 40°50' E 029°01'6 4.4
2014-Jul-26 10:14N 40°45' E 028°57'0 0.4
2014-Jul-26 09:32N 40°45' E 028°58'0 0.2
2014-Jul-26 08:33N 40°45' E 028°58'0 0.3
2014-Jul-26 07:33N 40°45' E 028°58'0 0.2
2014-Jul-26 06:33N 40°45' E 028°58'0 0.2
2014-Jul-26 04:30N 40°44' E 028°59'0 0.1
2014-Jul-26 03:32N 40°44' E 028°59'0 0.1
2014-Jul-26 02:20N 40°44' E 028°59'3 3.2
2014-Jul-26 01:32N 40°46' E 029°01'10 9.6
2014-Jul-26 00:33N 40°47' E 029°14'1010.5
2014-Jul-25 23:33N 40°45' E 029°27'10 9.5
2014-Jul-25 22:33N 40°45' E 029°40'  

Dump ship's entire track history